MicroStrategy Operating Margin 2006-2021 | MSTR

Current and historical operating margin for MicroStrategy (MSTR) over the last 10 years. The current operating profit margin for MicroStrategy as of June 30, 2021 is 10.60%.
MicroStrategy Operating Margin Historical Data
Date TTM Revenue TTM Operating Income Operating Margin
2021-06-30 $0.51B $-0.62B -121.94%
2021-03-31 $0.49B $-0.20B -40.04%
2020-12-31 $0.48B $-0.01B -2.92%
2020-09-30 $0.48B $-0.00B -0.83%
2020-06-30 $0.48B $0.02B 4.41%
2020-03-31 $0.48B $0.01B 2.07%
2019-12-31 $0.49B $0.00B 0.00%
2019-09-30 $0.49B $-0.01B -2.47%
2019-06-30 $0.49B $-0.01B -2.05%
2019-03-31 $0.49B $-0.01B -1.43%
2018-12-31 $0.50B $0.00B 0.80%
2018-09-30 $0.50B $0.02B 4.58%
2018-06-30 $0.51B $0.04B 7.31%
2018-03-31 $0.50B $0.05B 10.52%
2017-12-31 $0.50B $0.07B 14.51%
2017-09-30 $0.51B $0.10B 18.66%
2017-06-30 $0.51B $0.10B 20.27%
2017-03-31 $0.52B $0.11B 21.47%
2016-12-31 $0.51B $0.11B 21.40%
2016-09-30 $0.52B $0.12B 22.67%
2016-06-30 $0.52B $0.12B 22.87%
2016-03-31 $0.53B $0.13B 25.10%
2015-12-31 $0.53B $0.14B 25.42%
2015-09-30 $0.54B $0.12B 22.76%
2015-06-30 $0.56B $0.08B 15.08%
2015-03-31 $0.57B $0.04B 6.36%
2014-12-31 $0.58B $0.01B 0.86%
2014-09-30 $0.60B $-0.01B -1.51%
2014-06-30 $0.59B $0.01B 1.70%
2014-03-31 $0.58B $0.02B 3.60%
2013-12-31 $0.58B $0.02B 3.47%
2013-09-30 $0.57B $0.02B 2.65%
2013-06-30 $0.56B $0.01B 1.79%
2013-03-31 $0.56B $0.02B 3.95%
2012-12-31 $0.57B $0.03B 5.84%
2012-09-30 $0.54B $0.03B 6.25%
2012-06-30 $0.55B $0.03B 5.27%
2012-03-31 $0.55B $0.02B 3.98%
2011-12-31 $0.54B $0.02B 3.91%
2011-09-30 $0.54B $0.03B 4.62%
2011-06-30 $0.51B $0.03B 6.42%
2011-03-31 $0.48B $0.04B 9.09%
2010-12-31 $0.46B $0.05B 11.21%
2010-09-30 $0.42B $0.06B 13.98%
2010-06-30 $0.41B $0.08B 19.22%
2010-03-31 $0.39B $0.08B 20.72%
2009-12-31 $0.38B $0.09B 22.75%
2009-09-30 $0.37B $0.08B 21.80%
2009-06-30 $0.35B $0.07B 18.93%
2009-03-31 $0.36B $0.07B 18.59%
2008-12-31 $0.36B $0.07B 18.56%
2008-09-30 $0.36B $0.07B 20.11%
2008-06-30 $0.36B $0.09B 23.42%
2008-03-31 $0.35B $0.09B 25.00%
2007-12-31 $0.34B $0.09B 26.87%
2007-09-30 $0.33B $0.10B 29.97%
2007-06-30 $0.31B $0.09B 29.30%
2007-03-31 $0.31B $0.10B 31.61%
2006-12-31 $0.31B $0.10B 33.23%
2006-09-30 $0.30B $0.10B 32.89%
2006-06-30 $0.29B $0.10B 34.27%
2006-03-31 $0.28B $0.10B 35.02%
2005-12-31 $0.27B $0.09B 35.07%
Sector Industry Market Cap Revenue
Computer and Technology Computer Software $6.170B $0.481B
MicroStrategy Incorporated, a leading worldwide provider of business intelligence software, today announced that GT Nexus has selected MicroStrategy to power the customer-facing analytics and reporting capabilities on its Global Logistics portal. The GT Nexus portal is an on demand technology platform that is used by importers, exporters, transportation carriers, suppliers, banks, and other partners to manage goods that are moving around the world. The GT Nexus system captures and stores hard-to-get data associated with global supply chains, and then fuels a range of Web applications that can be used by constituents to lower supply chain costs and improve control. MicroStrategy will help GT Nexus to deliver a wide range of analytics and reporting capabilities to its customers, which include Home Depot, Kmart, Xerox, Weyerhaeuser, and American Eagle Outfitters.
Stock Name Country Market Cap PE Ratio
Microsoft (MSFT) United States $2293.695B 38.30
Adobe (ADBE) United States $316.858B 68.29
Salesforce, Inc (CRM) United States $254.892B 76.13
Oracle (ORCL) United States $238.906B 20.63
SAP SE (SAP) Germany $177.961B 22.63
Intuit (INTU) United States $156.449B 76.38
Dassault Systemes SA (DASTY) France $79.473B 69.78
Autodesk (ADSK) United States $63.906B 106.87
VMware (VMW) United States $58.579B 27.54
Synopsys (SNPS) United States $51.146B 69.87
Cadence Design Systems (CDNS) United States $46.391B 64.96
ANSYS (ANSS) United States $32.676B 65.70
SS&C Technologies Holdings (SSNC) United States $18.141B 16.26
Nuance Communications (NUAN) United States $17.377B 153.47
PTC (PTC) United States $14.731B 51.43
Open Text (OTEX) Canada $14.256B 16.24
Citrix Systems (CTXS) United States $13.784B 32.44
Pegasystems (PEGA) United States $10.749B 0.00
Manhattan Associates (MANH) United States $10.124B 107.89
Aspen Technology (AZPN) United States $8.597B 38.15
Trend Micro (TMICY) Japan $8.141B 30.45
Descartes Systems Group (DSGX) Canada $6.970B 99.24
BlackBerry (BB) Canada $5.761B 254.00
Cornerstone OnDemand (CSOD) United States $3.820B 22.18
ACI Worldwide (ACIW) United States $3.744B 21.83
CommVault Systems (CVLT) United States $3.594B 93.29
Blackbaud (BLKB) United States $3.321B 56.61
Verint Systems (VRNT) United States $2.928B 21.22
Progress Software (PRGS) United States $2.021B 15.61
Bottomline Technologies (EPAY) United States $1.861B 177.30
QAD (QADB) United States $1.828B 120.83
PROS Holdings (PRO) United States $1.762B 0.00
Sapiens (SPNS) Israel $1.544B 27.64
Canaan (CAN) China $1.227B 0.00
OptimizeRx (OPRX) United States $1.225B 631.91
Avid Technology (AVID) United States $1.204B 30.00
Magic Software Enterprises (MGIC) Israel $1.022B 24.81
Simulations Plus (SLP) United States $0.888B 77.39
American Software (AMSWA) United States $0.835B 89.57
Icad Inc (ICAD) United States $0.259B 0.00
Smith Micro Software (SMSI) United States $0.253B 0.00
ServiceSource (SREV) United States $0.134B 0.00
Park City (PCYG) United States $0.103B 48.27
Neonode (NEON) Sweden $0.067B 0.00
BSQUARE (BSQR) United States $0.050B 0.00
NetSol Technologies (NTWK) United States $0.044B 17.73
GSE Systems (GVP) United States $0.028B 0.00